Kayseri, Turkey

2:08 PM +03 on January 22, 2018 (GMT +0300)
Erkilet Air Base

Weather History for LTAU - December, 2012

Change the Weather History Date:

Monday, December 17, 2012

  Actual Average Record
Temperature  
Mean Temperature 34 °F -  
Max Temperature 38 °F 39 °F 59 °F (2003)
Min Temperature 29 °F 21 °F 0 °F (2004)
Degree Days  
Heating Degree Days 32    
Moisture  
Dew Point 31 °F    
Average Humidity 85    
Maximum Humidity 100    
Minimum Humidity 70    
Precipitation  
Precipitation 0.04 in - - ()
Sea Level Pressure  
Sea Level Pressure 29.99 in    
Wind  
Wind Speed 1 mph ()    
Max Wind Speed 4 mph    
Max Gust Speed -    
Visibility 3.6 miles    
Events Rain , Snow    
Averages and records for this station are not official NWS values.
T = Trace of Precipitation, MM = Missing Value Source: Averaged Metar Reports

Daily Weather History Graph

Daily Weather History Graph

Search for Another Location

Airport or City:

Trip Planner

Search our weather history database for the weather conditions in past years. The results will help you decide how hot, cold, wet, or windy it might be!

Date:

Astronomy

Dec. 17, 2012 Rise Set
Actual Time 6:50 AM EET 4:18 PM EET
Civil Twilight 6:20 AM EET 4:48 PM EET
Nautical Twilight 5:47 AM EET 5:21 PM EET
Astronomical Twilight 5:15 AM EET 5:54 PM EET
Moon 9:49 AM EET (12/17) 9:14 PM EET (12/17)
Length of Visible Light 10h 27m
Length of Day
9h 27m
Waxing Crescent, 22% of the Moon is Illuminated
Dec 17
Waxing Crescent
Dec 20
First Quarter
Dec 28
Full
Jan 5
Last Quarter
Jan 11
New

Hourly Weather History & Observations

Time (EET) Temp. Windchill Dew Point Humidity Pressure Visibility Wind Dir Wind Speed Gust Speed Precip Events Conditions
12:20 AM 30.2 °F 26.7 °F 24.8 °F 80% 30.06 in 3.7 mi WNW 3.5 mph - N/A   Mostly Cloudy
12:50 AM 30.2 °F - 26.6 °F 86% 30.06 in 3.7 mi Calm Calm - N/A   Mostly Cloudy
1:20 AM 30.2 °F - 26.6 °F 86% 30.06 in 3.7 mi Calm Calm - N/A   Mostly Cloudy
1:50 AM 32.0 °F - 26.6 °F 80% 30.04 in 3.7 mi Variable 1.2 mph - N/A   Mostly Cloudy
2:00 AM 31 °F - 25 °F 70%  in 4 mi ESE 1.2 mph - -   Mist
2:20 AM 30.2 °F - 24.8 °F 80% 30.04 in 3.7 mi Calm Calm - N/A   Mostly Cloudy
2:50 AM 32.0 °F - 24.8 °F 75% 30.04 in 4.3 mi NNW 2.3 mph - N/A   Mostly Cloudy
3:20 AM 32.0 °F - 24.8 °F 75% 30.04 in 5.0 mi Variable 1.2 mph - N/A   Mostly Cloudy
3:50 AM 32.0 °F - 26.6 °F 80% 30.04 in 5.0 mi Calm Calm - N/A   Mostly Cloudy
4:20 AM 30.2 °F - 26.6 °F 86% 30.04 in 4.3 mi Calm Calm - N/A   Mostly Cloudy
4:50 AM 32.0 °F - 26.6 °F 80% 30.04 in 4.3 mi Calm Calm - N/A   Mostly Cloudy
5:20 AM 32.0 °F - 26.6 °F 80% 30.04 in 5.0 mi North 2.3 mph - N/A   Mostly Cloudy
5:50 AM 32.0 °F - 26.6 °F 80% 30.04 in 4.3 mi Variable 1.2 mph - N/A   Mostly Cloudy
6:20 AM 32.0 °F - 24.8 °F 75% 30.04 in 3.7 mi Variable 2.3 mph - N/A   Mostly Cloudy
6:50 AM 32.0 °F - 26.6 °F 80% 30.04 in 3.7 mi Variable 1.2 mph - N/A   Mostly Cloudy
7:20 AM 32.0 °F - 26.6 °F 80% 30.04 in - Variable 1.2 mph - N/A Snow Light Snow
7:50 AM 32.0 °F - 26.6 °F 80% 30.04 in - Calm Calm - N/A Snow Light Snow
8:00 AM 32 °F - 27 °F 74%  in 2 mi Calm Calm - - Snow Light Snow
8:20 AM 32.0 °F - 28.4 °F 87% 30.04 in - Calm Calm - N/A Snow Light Snow
8:50 AM 32.0 °F - 28.4 °F 87% 30.04 in 1.2 mi Calm Calm - N/A Snow Light Snow
9:20 AM 32.0 °F - 28.4 °F 87% 30.04 in 1.2 mi Variable 1.2 mph - N/A Snow Light Snow
9:50 AM 32.0 °F - 28.4 °F 87% 30.04 in 1.8 mi Calm Calm - N/A Snow Light Snow
10:20 AM 33.8 °F - 30.2 °F 87% 30.04 in 3.7 mi Variable 1.2 mph - N/A Snow Light Snow
10:50 AM 35.6 °F - 30.2 °F 81% 30.01 in 3.7 mi Calm Calm - N/A   Mostly Cloudy
11:20 AM 35.6 °F - 32.0 °F 87% 30.01 in 4.3 mi Calm Calm - N/A   Mostly Cloudy
11:50 AM 37.4 °F - 32.0 °F 81% 30.01 in 4.3 mi Calm Calm - N/A   Mostly Cloudy
12:20 PM 37.4 °F - 32.0 °F 81% 29.98 in 4.3 mi Calm Calm - N/A   Mostly Cloudy
12:50 PM 37.4 °F - 32.0 °F 81% 29.98 in 5.0 mi Calm Calm - N/A Rain Light Rain
1:20 PM 39.2 °F - 32.0 °F 75% 29.98 in 5.0 mi Calm Calm - N/A   Mostly Cloudy
1:50 PM 39.2 °F - 33.8 °F 81% 29.98 in 5.0 mi Calm Calm - N/A   Mostly Cloudy
2:00 PM 38 °F - 33 °F 77%  in 5 mi Calm Calm - - Rain Light Rain
2:20 PM 39.2 °F - 33.8 °F 81% 29.95 in 5.0 mi Calm Calm - N/A   Mostly Cloudy
2:50 PM 37.4 °F 34.9 °F 33.8 °F 87% 29.98 in 5.0 mi NNE 3.5 mph - N/A Rain Light Rain
3:20 PM 37.4 °F - 33.8 °F 87% 29.98 in 5.6 mi Calm Calm - N/A Rain Light Rain
3:50 PM 37.4 °F - 33.8 °F 87% 29.95 in 3.7 mi Calm Calm - N/A   Mostly Cloudy
4:20 PM 37.4 °F - 33.8 °F 87% 29.95 in 3.7 mi Calm Calm - N/A   Mostly Cloudy
4:50 PM 37.4 °F - 33.8 °F 87% 29.95 in 3.7 mi Calm Calm - N/A Rain Light Rain
5:20 PM 35.6 °F - 33.8 °F 93% 29.95 in 5.0 mi Variable 1.2 mph - N/A   Overcast
5:50 PM 35.6 °F - 33.8 °F 93% 29.95 in 6.2 mi Variable 1.2 mph - N/A   Mostly Cloudy
6:20 PM 35.6 °F - 33.8 °F 93% 29.92 in 5.0 mi East 2.3 mph - N/A   Mostly Cloudy
6:50 PM 35.6 °F - 33.8 °F 93% 29.92 in 3.7 mi Calm Calm - N/A   Mostly Cloudy
7:20 PM 35.6 °F - 33.8 °F 93% 29.92 in 3.7 mi Calm Calm - N/A Rain Light Rain
7:50 PM 35.6 °F - 33.8 °F 93% 29.95 in - Variable 1.2 mph - N/A Rain Light Rain
8:00 PM 35 °F - 34 °F 93%  in 2 mi SE 1.2 mph - - Rain Light Rain
8:20 PM 35.6 °F - 33.8 °F 93% 29.92 in - Calm Calm - N/A Rain Light Rain
8:50 PM 35.6 °F - 33.8 °F 93% 29.95 in 1.2 mi Calm Calm - N/A Rain Light Rain
9:20 PM 35.6 °F - 33.8 °F 93% 29.95 in 1.0 mi Variable 1.2 mph - N/A Rain Light Rain
9:50 PM 35.6 °F - 33.8 °F 93% 29.92 in 1.1 mi Variable 1.2 mph - N/A Rain Light Rain
10:20 PM 35.6 °F - 35.6 °F 100% 29.92 in 0.7 mi Variable 2.3 mph - N/A Rain Light Rain
10:50 PM 35.6 °F - 35.6 °F 100% 29.92 in 0.7 mi Calm Calm - N/A Rain Light Rain
11:20 PM 35.6 °F 32.8 °F 35.6 °F 100% 29.92 in 1.0 mi North 3.5 mph - N/A Rain Light Rain
11:50 PM 35.6 °F - 35.6 °F 100% 29.92 in 1.4 mi Calm Calm - N/A Rain Light Rain